Hourly Weather Godylovo

Today, 15 May, Saturday

Time Temperature Precipitation Wind Pressure Humidity
00:00 +12°C° 0 mm 2 mps 740 mmHg 93%
01:00 +10°C° 0 mm 2 mps 739 mmHg 94%
02:00 +10°C° 0 mm 2 mps 739 mmHg 94%
03:00 +10°C° 0 mm 2 mps 740 mmHg 94%
04:00 +10°C° 0 mm 2 mps 740 mmHg 93%
05:00 +10°C° 0 mm 2 mps 740 mmHg 93%
06:00 +12°C° 0 mm 2 mps 740 mmHg 92%
07:00 +13°C° 0 mm 2 mps 740 mmHg 91%
08:00 +12°C° 0 mm 3 mps 740 mmHg 90%
09:00 +13°C° 0.1 mm 3 mps 741 mmHg 87%
10:00 +14°C° 0.1 mm 4 mps 741 mmHg 84%
11:00 +15°C° 0.1 mm 4 mps 741 mmHg 81%
12:00 +17°C° 0.1 mm 4 mps 741 mmHg 78%
13:00 +17°C° 0.1 mm 4 mps 741 mmHg 76%
14:00 +18°C° 0.1 mm 4 mps 740 mmHg 74%
15:00 +18°C° 0.5 mm 4 mps 740 mmHg 75%
16:00 +18°C° 0.5 mm 4 mps 741 mmHg 77%
17:00 +18°C° 0.5 mm 4 mps 741 mmHg 79%
18:00 +17°C° 0.4 mm 3 mps 741 mmHg 84%
19:00 +14°C° 0.4 mm 3 mps 741 mmHg 89%
20:00 +13°C° 0.4 mm 3 mps 741 mmHg 94%
21:00 +12°C° 0.1 mm 3 mps 741 mmHg 95%
22:00 +12°C° 0.1 mm 3 mps 741 mmHg 96%
23:00 +12°C° 0.1 mm 3 mps 741 mmHg 96%

Tomorrow, 16 May, Sunday

Time Temperature Precipitation Wind Pressure Humidity
00:00 +11°C° 0 mm 3 mps 742 mmHg 97%
01:00 +11°C° 0 mm 3 mps 742 mmHg 97%
02:00 +11°C° 0 mm 3 mps 742 mmHg 97%
03:00 +11°C° 0 mm 3 mps 742 mmHg 97%
04:00 +10°C° 0 mm 3 mps 743 mmHg 97%
05:00 +10°C° 0 mm 2 mps 743 mmHg 97%
06:00 +12°C° 0 mm 3 mps 743 mmHg 92%
07:00 +13°C° 0 mm 3 mps 744 mmHg 88%
08:00 +16°C° 0 mm 3 mps 744 mmHg 83%
09:00 +17°C° 0 mm 3 mps 744 mmHg 76%
10:00 +18°C° 0 mm 3 mps 744 mmHg 70%
11:00 +19°C° 0 mm 3 mps 745 mmHg 63%
12:00 +20°C° 0 mm 3 mps 745 mmHg 63%
13:00 +20°C° 0 mm 3 mps 744 mmHg 63%
14:00 +20°C° 0 mm 3 mps 744 mmHg 62%
15:00 +20°C° 0 mm 3 mps 744 mmHg 65%
16:00 +20°C° 0 mm 3 mps 744 mmHg 67%
17:00 +19°C° 0 mm 2 mps 744 mmHg 70%
18:00 +18°C° 0 mm 3 mps 744 mmHg 73%
19:00 +17°C° 0 mm 3 mps 744 mmHg 77%
20:00 +14°C° 0 mm 3 mps 744 mmHg 81%
21:00 +14°C° 0 mm 3 mps 744 mmHg 83%
22:00 +13°C° 0 mm 3 mps 744 mmHg 84%
23:00 +13°C° 0 mm 3 mps 744 mmHg 86%

Day after tomorrow, 17 May, Monday

Time Temperature Precipitation Wind Pressure Humidity
00:00 +13°C° 0 mm 3 mps 743 mmHg 88%
01:00 +12°C° 0 mm 3 mps 743 mmHg 90%
02:00 +12°C° 0 mm 3 mps 743 mmHg 92%
03:00 +12°C° 0 mm 3 mps 743 mmHg 92%
04:00 +12°C° 0 mm 3 mps 743 mmHg 92%
05:00 +12°C° 0 mm 3 mps 743 mmHg 92%
06:00 +13°C° 0 mm 3 mps 743 mmHg 88%
07:00 +16°C° 0 mm 3 mps 743 mmHg 84%
08:00 +17°C° 0 mm 4 mps 742 mmHg 80%
09:00 +18°C° 0.2 mm 3 mps 742 mmHg 79%
10:00 +18°C° 0.2 mm 3 mps 742 mmHg 78%
11:00 +19°C° 0.2 mm 2 mps 741 mmHg 77%
12:00 +19°C° 0.4 mm 2 mps 741 mmHg 78%
13:00 +18°C° 0.4 mm 3 mps 741 mmHg 79%
14:00 +18°C° 0.4 mm 3 mps 740 mmHg 81%
15:00 +17°C° 0.8 mm 4 mps 740 mmHg 84%
16:00 +17°C° 0.8 mm 4 mps 740 mmHg 87%
17:00 +15°C° 0.8 mm 5 mps 739 mmHg 90%
18:00 +14°C° 1.3 mm 4 mps 739 mmHg 92%
19:00 +14°C° 1.3 mm 4 mps 739 mmHg 93%
20:00 +13°C° 1.3 mm 3 mps 739 mmHg 95%
21:00 +13°C° 0.1 mm 3 mps 738 mmHg 96%
22:00 +13°C° 0.1 mm 2 mps 738 mmHg 97%
23:00 +13°C° 0.1 mm 2 mps 738 mmHg 98%

18 May, Tuesday

Time Temperature Precipitation Wind Pressure Humidity
00:00 +13°C° 0.8 mm 2 mps 737 mmHg 98%
01:00 +13°C° 0.8 mm 2 mps 737 mmHg 98%
02:00 +13°C° 0.8 mm 2 mps 737 mmHg 98%
03:00 +13°C° 0.4 mm 2 mps 736 mmHg 98%
04:00 +13°C° 0.4 mm 2 mps 736 mmHg 98%
05:00 +14°C° 0.4 mm 2 mps 736 mmHg 98%
06:00 +14°C° 0.3 mm 2 mps 736 mmHg 97%
07:00 +14°C° 0.3 mm 1 mps 735 mmHg 96%
08:00 +15°C° 0.3 mm 1 mps 735 mmHg 95%
09:00 +15°C° 0.3 mm 1 mps 735 mmHg 95%
10:00 +15°C° 0.3 mm 1 mps 735 mmHg 95%
11:00 +15°C° 0.3 mm 1 mps 735 mmHg 95%
12:00 +15°C° 0.6 mm 2 mps 735 mmHg 95%
13:00 +15°C° 0.6 mm 2 mps 735 mmHg 96%
14:00 +15°C° 0.6 mm 2 mps 735 mmHg 96%
15:00 +15°C° 1.2 mm 2 mps 735 mmHg 95%
16:00 +15°C° 1.2 mm 2 mps 735 mmHg 95%
17:00 +15°C° 1.2 mm 2 mps 736 mmHg 94%
18:00 +15°C° 0.2 mm 2 mps 736 mmHg 93%
19:00 +14°C° 0.2 mm 2 mps 736 mmHg 92%
20:00 +14°C° 0.2 mm 2 mps 737 mmHg 91%
21:00 +13°C° 0.4 mm 3 mps 737 mmHg 92%
22:00 +12°C° 0.4 mm 3 mps 737 mmHg 94%
23:00 +12°C° 0.4 mm 3 mps 737 mmHg 95%

19 May, Wednesday

Time Temperature Precipitation Wind Pressure Humidity
00:00 +12°C° 0.2 mm 3 mps 737 mmHg 95%
01:00 +11°C° 0.2 mm 4 mps 737 mmHg 95%
02:00 +11°C° 0.2 mm 4 mps 737 mmHg 96%
03:00 +10°C° 0 mm 4 mps 737 mmHg 96%
04:00 +10°C° 0 mm 4 mps 737 mmHg 96%
05:00 +10°C° 0 mm 4 mps 737 mmHg 95%
06:00 +10°C° 0 mm 4 mps 738 mmHg 93%
07:00 +9°C° 0 mm 5 mps 738 mmHg 90%
08:00 +9°C° 0 mm 6 mps 738 mmHg 87%
09:00 +10°C° 0 mm 6 mps 738 mmHg 86%
10:00 +10°C° 0 mm 6 mps 739 mmHg 85%
11:00 +10°C° 0 mm 6 mps 739 mmHg 84%
12:00 +11°C° 0 mm 6 mps 739 mmHg 79%
13:00 +13°C° 0 mm 6 mps 739 mmHg 74%
14:00 +14°C° 0 mm 6 mps 739 mmHg 69%
15:00 +14°C° 0.1 mm 6 mps 739 mmHg 70%
16:00 +14°C° 0.1 mm 6 mps 739 mmHg 70%
17:00 +14°C° 0.1 mm 6 mps 739 mmHg 70%
18:00 +13°C° 0.1 mm 5 mps 740 mmHg 75%
19:00 +12°C° 0.1 mm 5 mps 740 mmHg 80%
20:00 +9°C° 0.1 mm 5 mps 741 mmHg 86%
21:00 +10°C° 0 mm 4 mps 741 mmHg 88%
22:00 +8°C° 0 mm 4 mps 742 mmHg 91%
23:00 +7°C° 0 mm 4 mps 742 mmHg 93%

20 May, Thursday

Time Temperature Precipitation Wind Pressure Humidity
00:00 +7°C° 0 mm 4 mps 742 mmHg 93%
01:00 +6°C° 0 mm 4 mps 743 mmHg 93%
02:00 +6°C° 0 mm 4 mps 743 mmHg 93%
03:00 +5°C° 0 mm 4 mps 744 mmHg 92%
04:00 +5°C° 0 mm 4 mps 744 mmHg 91%
05:00 +5°C° 0 mm 3 mps 744 mmHg 90%
06:00 +7°C° 0 mm 4 mps 745 mmHg 83%
07:00 +8°C° 0 mm 5 mps 745 mmHg 76%
08:00 +10°C° 0 mm 5 mps 746 mmHg 69%
09:00 +12°C° 0 mm 5 mps 746 mmHg 65%
10:00 +13°C° 0 mm 5 mps 746 mmHg 60%
11:00 +14°C° 0 mm 5 mps 746 mmHg 56%
12:00 +15°C° 0 mm 5 mps 746 mmHg 53%
13:00 +15°C° 0 mm 4 mps 746 mmHg 50%
14:00 +17°C° 0 mm 4 mps 746 mmHg 47%
15:00 +17°C° 0 mm 4 mps 746 mmHg 51%
16:00 +17°C° 0 mm 3 mps 746 mmHg 55%
17:00 +16°C° 0 mm 3 mps 746 mmHg 59%
18:00 +15°C° 0 mm 2 mps 746 mmHg 65%
19:00 +13°C° 0 mm 2 mps 746 mmHg 71%
20:00 +11°C° 0 mm 1 mps 747 mmHg 77%
21:00 +11°C° 0 mm 1 mps 747 mmHg 79%
22:00 +9°C° 0 mm 2 mps 747 mmHg 81%
23:00 +8°C° 0 mm 2 mps 747 mmHg 83%
Show more